WD9EKA Weather Reports


Display with metric or nautical units.
time (UTC)temp
F
wind
direction
speed
MPH
gust
MPH
rain 1hr
in
rain 24hr
in
rain mn
in
humidity
%
barometer
mb
20260503192249 60 207 4.0 6.0 0.00 0.00 0.00 56 1010.4
20260503191730 60 204 10.0 13.0 0.00 0.00 0.00 57 1010.2
20260503191210 60 215 10.0 11.0 0.00 0.00 0.00 56 1010.1
20260503190649 60 193 6.0 8.0 0.00 0.00 0.00 54 1010.3
20260503190129 61 229 8.0 9.0 0.00 0.00 0.00 56 1010.0
20260503185610 61 228 12.0 14.0 0.00 0.00 0.00 58 1010.1
20260503185050 62 248 6.0 11.0 0.00 0.00 0.00 61 1010.1
20260503184530 61 227 11.0 12.0 0.00 0.00 0.00 60 1010.3
20260503183953 61 231 4.0 5.0 0.00 0.00 0.00 56 1010.4
20260503183433 61 229 7.0 11.0 0.00 0.00 0.00 57 1010.9
20260503182913 61 214 6.0 9.0 0.00 0.00 0.00 57 1010.5
20260503182353 61 214 5.0 6.0 0.00 0.00 0.00 58 1010.4
20260503181833 61 230 9.0 12.0 0.00 0.00 0.00 58 1011.0
20260503181314 61 174 6.0 9.0 0.00 0.00 0.00 56 1011.0
20260503180753 61 207 12.0 17.0 0.00 0.00 0.00 60 1010.8
20260503180234 61 207 5.0 6.0 0.00 0.00 0.00 59 1011.1
20260503175714 61 229 5.0 11.0 0.00 0.00 0.00 60 1011.1
20260503175154 61 200 9.0 15.0 0.00 0.00 0.00 56 1011.4
20260503174633 61 223 12.0 15.0 0.00 0.00 0.00 58 1011.5
20260503174113 61 161 12.0 15.0 0.00 0.00 0.00 57 1011.9
20260503173553 61 224 5.0 5.0 0.00 0.00 0.00 62 1011.6
20260503173033 60 133 5.0 9.0 0.00 0.00 0.00 58 1012.0
20260503172514 59 223 6.0 8.0 0.00 0.00 0.00 60 1012.3
20260503171954 60 210 12.0 15.0 0.00 0.00 0.00 63 1012.6
20260503171433 60 208 4.0 5.0 0.00 0.00 0.00 58 1012.5
20260503170914 60 189 5.0 6.0 0.00 0.00 0.00 59 1012.6
20260503170354 59 219 7.0 9.0 0.00 0.00 0.00 64 1012.5
20260503150634 55 263 5.0 6.0 0.00 0.00 0.00 66 1014.1
20260503150115 55 229 6.0 8.0 0.00 0.00 0.00 63 1014.2
20260503131122 50 211 4.0 5.0 0.00 0.00 0.00 77 1014.5
20260503130602 50 217 2.0 2.0 0.00 0.00 0.00 79 1014.4
20260503120133 44 226 3.0 3.0 0.00 0.00 0.00 82 1014.1
20260503110733 42 217 1.0 2.0 0.00 0.00 0.00 78 1014.2
20260503110134 42 243 0.0 1.0 0.00 0.00 0.00 78 1014.0
20260503100233 41 229 1.0 2.0 0.00 0.00 0.00 80 1014.1
20260503090410 36 219 0.0 0.0 0.00 0.00 0.00 99 1014.1
20260503080534 35 243 0.0 0.0 0.00 0.00 0.00 99 1014.1
20260503072933 35 243 0.0 0.0 0.00 0.00 0.00 99 1013.9
20260503072333 36 243 0.0 0.0 0.00 0.00 0.00 99 1013.9
20260503071733 36 243 0.0 0.0 0.00 0.00 0.00 99 1014.3
20260503071133 36 243 0.0 0.0 0.00 0.00 0.00 99 1014.1
20260503070533 36 243 0.0 0.0 0.00 0.00 0.00 99 1014.3
20260503054458 36 243 0.0 0.0 0.00 0.00 0.00 99 1014.5
20260503053938 36 243 0.0 0.0 0.00 0.00 0.00 99 1014.6
20260503053418 36 243 0.0 0.0 0.00 0.00 0.00 99 1014.6
20260503052858 37 243 0.0 0.0 0.00 0.00 0.00 99 1014.4
20260503052338 37 244 0.0 0.0 0.00 0.00 0.00 99 1014.6
20260503051803 36 243 0.0 0.0 0.00 0.00 0.00 99 1014.5
20260503051242 37 243 0.0 0.0 0.00 0.00 0.00 99 1014.4
20260503050722 36 244 0.0 0.0 0.00 0.00 0.00 99 1014.5
20260503050204 37 243 0.0 0.0 0.00 0.00 0.00 99 1014.5
20260503045642 37 244 0.0 0.0 0.00 0.00 0.00 99 1014.5
20260503045122 37 243 0.0 0.0 0.00 0.00 0.00 99 1014.4
20260503044603 37 243 0.0 0.0 0.00 0.00 0.00 99 1014.4
20260503044042 38 243 0.0 0.0 0.00 0.00 0.00 98 1014.3
20260503043433 38 243 0.0 0.0 0.00 0.00 0.00 98 1014.5
20260503042833 38 243 0.0 0.0 0.00 0.00 0.00 98 1014.5
20260503042233 38 243 0.0 0.0 0.00 0.00 0.00 98 1014.6
20260503041633 37 244 0.0 0.0 0.00 0.00 0.00 97 1014.5
20260503041033 38 244 0.0 0.0 0.00 0.00 0.00 97 1014.5
20260503040433 38 243 0.0 0.0 0.00 0.00 0.00 97 1014.4
20260503035833 38 243 0.0 0.0 0.00 0.00 0.00 96 1014.8
20260503035233 38 243 0.0 0.0 0.00 0.00 0.00 96 1014.7
20260503034633 38 243 0.0 0.0 0.00 0.00 0.00 96 1014.7
20260503034033 38 243 0.0 0.0 0.00 0.00 0.00 95 1014.7
20260503033433 38 243 0.0 0.0 0.00 0.00 0.00 95 1014.6
20260503032833 39 243 0.0 0.0 0.00 0.00 0.00 94 1014.6
20260503032233 38 244 0.0 0.0 0.00 0.00 0.00 94 1014.6
20260503031633 38 243 0.0 0.0 0.00 0.00 0.00 94 1014.5
20260503031033 39 243 0.0 0.0 0.00 0.00 0.00 93 1014.7
20260503030433 39 243 0.0 0.0 0.00 0.00 0.00 92 1014.4
20260503025833 39 244 0.0 0.0 0.00 0.00 0.00 92 1014.6
20260503025233 39 244 0.0 0.0 0.00 0.00 0.00 91 1014.5
20260503024633 39 244 0.0 0.0 0.00 0.00 0.00 90 1014.5
20260503024130 40 244 0.0 0.0 0.00 0.00 0.00 90 1014.5
20260503023611 40 244 0.0 0.0 0.00 0.00 0.00 90 1014.5
20260503023051 41 243 0.0 1.0 0.00 0.00 0.00 90 1014.7
20260503022533 40 244 0.0 0.0 0.00 0.00 0.00 89 1014.3
20260503021933 40 244 0.0 0.0 0.00 0.00 0.00 88 1014.4
20260503021333 40 243 0.0 0.0 0.00 0.00 0.00 87 1014.5
20260503020826 41 244 0.0 0.0 0.00 0.00 0.00 86 1014.3
20260503020307 41 243 0.0 0.0 0.00 0.00 0.00 86 1014.5
20260503015746 41 243 0.0 0.0 0.00 0.00 0.00 83 1014.2
20260503015233 41 244 0.0 0.0 0.00 0.00 0.00 80 1014.2
20260503014633 42 244 0.0 0.0 0.00 0.00 0.00 79 1014.2
20260503014033 42 244 0.0 0.0 0.00 0.00 0.00 79 1013.9
20260503013433 43 244 0.0 0.0 0.00 0.00 0.00 78 1014.0
20260503012833 42 244 0.0 0.0 0.00 0.00 0.00 75 1013.7
20260503012233 43 244 0.0 0.0 0.00 0.00 0.00 74 1014.0
20260503011633 43 243 0.0 0.0 0.00 0.00 0.00 71 1013.9
20260503011033 43 244 0.0 0.0 0.00 0.00 0.00 68 1013.8
20260503010433 45 244 0.0 0.0 0.00 0.00 0.00 65 1013.9
20260503005833 45 244 0.0 0.0 0.00 0.00 0.00 65 1013.8
20260503005314 46 243 0.0 0.0 0.00 0.00 0.00 64 1013.8
20260503004754 47 244 0.0 0.0 0.00 0.00 0.00 60 1013.7
20260503004233 47 244 0.0 0.0 0.00 0.00 0.00 58 1013.7
20260503003633 48 243 0.0 0.0 0.00 0.00 0.00 57 1013.7
20260503003122 49 243 0.0 0.0 0.00 0.00 0.00 55 1013.8
20260503002604 49 243 0.0 0.0 0.00 0.00 0.00 54 1013.5
20260503002042 50 243 0.0 0.0 0.00 0.00 0.00 53 1013.6
20260503001534 50 179 0.0 0.0 0.00 0.00 0.00 52 1013.7
20260503000933 51 185 0.0 0.0 0.00 0.00 0.00 48 1013.7
20260503000333 52 168 0.0 0.0 0.00 0.00 0.00 46 1013.7
20260502235733 53 88 0.0 2.0 0.00 0.00 0.00 45 1013.7
20260502235133 54 108 1.0 2.0 0.00 0.00 0.00 43 1013.6
20260502234619 54 12 0.0 0.0 0.00 0.00 0.00 45 1013.7
20260502234059 54 94 1.0 1.0 0.00 0.00 0.00 42 1013.6
20260502233538 55 81 4.0 6.0 0.00 0.00 0.00 42 1013.5
20260502233033 55 279 2.0 2.0 0.00 0.00 0.00 45 1013.6
20260502232433 55 87 0.0 0.0 0.00 0.00 0.00 44 1013.3
20260502231922 55 252 0.0 2.0 0.00 0.00 0.00 42 1013.5
20260502231404 56 246 2.0 3.0 0.00 0.00 0.00 38 1013.6
20260502230833 55 67 1.0 2.0 0.00 0.00 0.00 40 1013.5
20260502230333 55 31 1.0 2.0 0.00 0.00 0.00 40 1013.5
20260502225733 55 35 0.0 0.0 0.00 0.00 0.00 39 1013.6
20260502225227 56 322 4.0 5.0 0.00 0.00 0.00 37 1013.6
20260502224707 57 286 1.0 4.0 0.00 0.00 0.00 39 1013.5
20260502224147 57 223 0.0 0.0 0.00 0.00 0.00 39 1013.7
20260502223633 57 13 1.0 2.0 0.00 0.00 0.00 41 1013.5
20260502223123 57 201 0.0 1.0 0.00 0.00 0.00 40 1013.3
20260502222604 56 242 1.0 2.0 0.00 0.00 0.00 41 1013.5
20260502222043 56 285 3.0 4.0 0.00 0.00 0.00 40 1013.3
20260502221005 56 342 2.0 3.0 0.00 0.00 0.00 40 1013.4
20260502215923 55 276 3.0 4.0 0.00 0.00 0.00 42 1013.5
20260502215404 57 171 2.0 3.0 0.00 0.00 0.00 39 1013.3
20260502214843 57 351 2.0 2.0 0.00 0.00 0.00 38 1013.6
20260502214322 56 256 1.0 2.0 0.00 0.00 0.00 40 1013.5
20260502213804 55 111 1.0 3.0 0.00 0.00 0.00 41 1013.4
20260502213243 55 254 2.0 3.0 0.00 0.00 0.00 41 1013.5
20260502212723 56 37 1.0 3.0 0.00 0.00 0.00 38 1013.5
20260502212205 55 76 2.0 3.0 0.00 0.00 0.00 41 1013.5
20260502211633 55 5 4.0 5.0 0.00 0.00 0.00 40 1013.6
20260502211107 55 123 2.0 2.0 0.00 0.00 0.00 39 1013.5
20260502210547 55 252 3.0 5.0 0.00 0.00 0.00 38 1013.5
20260502210027 55 103 5.0 8.0 0.00 0.00 0.00 38 1013.4
20260502205507 54 50 2.0 3.0 0.00 0.00 0.00 42 1013.7
20260502204947 55 181 1.0 2.0 0.00 0.00 0.00 41 1013.7
20260502204427 54 47 2.0 5.0 0.00 0.00 0.00 43 1013.6
20260502203907 55 20 4.0 4.0 0.00 0.00 0.00 41 1013.6
20260502203347 54 246 1.0 2.0 0.00 0.00 0.00 42 1013.7
20260502202827 54 337 3.0 4.0 0.00 0.00 0.00 39 1013.8
20260502202307 55 260 4.0 6.0 0.00 0.00 0.00 36 1013.7
20260502201747 55 71 2.0 4.0 0.00 0.00 0.00 38 1013.8
20260502201227 54 341 2.0 3.0 0.00 0.00 0.00 43 1013.9
20260502200707 54 281 1.0 2.0 0.00 0.00 0.00 41 1013.9
20260502200147 55 231 0.0 1.0 0.00 0.00 0.00 39 1013.7
20260502195627 56 117 4.0 6.0 0.00 0.00 0.00 40 1014.0
20260502195107 57 264 2.0 3.0 0.00 0.00 0.00 46 1013.9
20260502194547 56 134 0.0 2.0 0.00 0.00 0.00 38 1013.8
20260502194027 55 188 2.0 3.0 0.00 0.00 0.00 41 1013.8
20260502193507 56 91 1.0 2.0 0.00 0.00 0.00 43 1014.0
20260502192947 56 311 3.0 4.0 0.00 0.00 0.00 43 1014.1